Location: Sihaung
(22.8641°N, 94.0549°E)
Time: 11:42:21
(UTC+00:00)

Cosmos 1992 Rocket - Pass Details

Date: 03 March 2021
Orbit: 759 x 765 km, 74.0° (Epoch: 12 April)

Event Time Altitude Azimuth Distance (km) Brightness Sun altitude
Rises 23:17:58 0° 340° (NNW) 3,216 7.0 -11.1°
Reaches altitude 10° 23:20:21 10° 336° (NNW) 2,288 6.2 -10.6°
Maximum altitude 23:25:27 60° 258° (WSW) 868 4.0 -9.4°
Drops below altitude 10° 23:30:32 10° 179° (S) 2,279 6.5 -8.2°
Sets 23:32:55 0° 175° (S) 3,202 7.3 -7.7°
